Station PBFW1 - Padilla Bay Farm, Padilla Bay Reserve, WA Image indicating link to RSS feed of recent meteorological observations for station PBFW1


Conditions at PBFW1 as of
(4:30 pm PDT)
2330 GMT on 05/20/2024:
     

Click on the graph icon in the table below to see a time series plot of the last five days of that observation.

5-day plot - Wind Direction Wind Direction (WDIR): W ( 260 deg true )
5-day plot - Wind Speed Wind Speed (WSPD): 9.9 kts
5-day plot - Atmospheric Pressure Atmospheric Pressure (PRES):30.21 in
5-day plot - Air Temperature Air Temperature (ATMP): 61.2 °F
5-day plot - Dew Point Dew Point (DEWP): 44.1 °F
5-day plot -  Wind Speed, Wind Gust and Atmospheric Pressure Combined plot of Wind Speed, Gust, and Air Pressure
Previous observations
TIME
(PDT)
5-day plot - Wind Direction
WDIR
 
5-day plot - Wind Speed
WSPD
kts
5-day plot - Wind Gust
GST
kts
5-day plot - Wave Height
WVHT
ft
5-day plot - Dominant Wave Period
DPD
sec
5-day plot - Average Wave Period
APD
sec
5-day plot - Mean Wave Direction
MWD
 
5-day plot - Atmospheric Pressure
PRES
in
5-day plot - Pressure Tendency
PTDY
in
5-day plot - Air Temperature
ATMP
°F
5-day plot - Water Temperature
WTMP
°F
5-day plot - Dew Point
DEWP
°F
5-day plot - Salinity
SAL
psu
5-day plot - Visibility
VIS
nmi
5-day plot - Tide (above MLLW)
TIDE
ft
2024-05-20 04:15 pm W 8.9-----30.21- 61.7- 42.6---
2024-05-20 04:00 pm W 8.9-----30.21-0.06 61.7- 43.2---
2024-05-20 03:45 pm W 8.9-----30.21- 62.1- 42.4---
2024-05-20 03:30 pm W 8.0-----30.24- 62.1- 43.5---
2024-05-20 03:15 pmWNW 7.0-----30.24- 61.0- 45.9---
2024-05-20 03:00 pmNNW 7.0-----30.24-0.03 60.1- 46.8---
2024-05-20 02:45 pm N 8.0-----30.24- 60.1- 47.3---
2024-05-20 02:30 pm N 7.0-----30.24- 60.1- 47.3---
2024-05-20 02:15 pm N 8.0-----30.24- 60.1- 48.0---
2024-05-20 02:00 pm N 7.0-----30.24-0.03 60.4- 48.0---
2024-05-20 01:45 pmWNW 4.1-----30.24- 60.4- 47.1---
2024-05-20 01:30 pmWSW 4.1-----30.24- 60.4- 48.0---
2024-05-20 01:15 pmWSW 4.1-----30.24- 60.1- 47.3---
2024-05-20 01:00 pmWSW 2.9-----30.27+0.00 59.2- 46.8---
2024-05-20 12:45 pm W 2.9-----30.27- 58.3- 46.8---
2024-05-20 12:30 pm SW 2.9-----30.27- 58.5- 46.6---
2024-05-20 12:15 pmWNW 1.9-----30.27- 57.2- 46.0---
2024-05-20 12:00 pm NW 1.9-----30.27- 56.1- 45.9---
2024-05-20 11:45 amWSW 1.9-----30.27- 56.1- 46.2---
2024-05-20 11:30 am S 2.9-----30.27- 55.4- 46.6---
2024-05-20 11:15 amSSW 4.1-----30.27- 55.0- 46.9---
2024-05-20 11:00 am SW 4.1-----30.27- 54.5- 47.1---
2024-05-20 10:45 am W 4.1-----30.27- 54.0- 47.3---
2024-05-20 10:30 am W 2.9-----30.27- 53.8- 46.8---
2024-05-20 10:15 am SW 2.9-----30.27- 53.2- 46.9---
2024-05-20 10:00 am SW 4.1-----30.27- 52.7- 47.1---
2024-05-20 09:45 amSSW 5.1-----30.27- 52.3- 47.1---
2024-05-20 06:30 am S 5.1-----30.27- 49.3- 46.6---
2024-05-20 06:15 am S 5.1-----30.27- 48.7- 46.2---
2024-05-20 06:00 am S 4.1-----30.27+0.03 48.4- 46.2---
2024-05-20 05:45 am S 4.1-----30.24- 48.0- 46.0---
2024-05-20 05:30 am S 4.1-----30.24- 47.3- 45.3---
2024-05-20 05:15 am S 4.1-----30.24- 46.9- 45.3---
2024-05-20 05:00 amSSE 4.1-----30.24+0.00 45.9- 44.2---
2024-05-20 04:45 am SE 4.1-----30.24- 44.6- 43.3---
2024-05-20 04:30 am SE 4.1-----30.24- 43.3- 41.7---
2024-05-20 04:15 am SE 4.1-----30.24- 43.7- 42.1---
2024-05-20 04:00 am SE 4.1-----30.24+0.00 43.7- 41.9---
2024-05-20 03:45 am SE 4.1-----30.24- 44.1- 41.9---
2024-05-20 03:30 amSSE 4.1-----30.24- 44.2- 41.7---
2024-05-20 03:15 amSSE 4.1-----30.24- 45.0- 42.4---
2024-05-20 03:00 amSSE 4.1-----30.24+0.00 44.4- 42.3---
2024-05-20 02:45 am SE 4.1-----30.24- 44.1- 41.9---
2024-05-20 02:30 am SE 2.9-----30.24- 44.1- 41.9---
2024-05-20 02:15 amSSE 4.1-----30.24- 44.8- 42.3---
2024-05-20 02:00 am SE 4.1-----30.24+0.00 44.6- 41.5---
2024-05-20 01:45 amSSE 4.1-----30.24- 45.3- 42.3---
2024-05-20 01:30 amSSE 4.1-----30.24- 45.1- 41.5---
2024-05-20 01:15 am SE 4.1-----30.24- 45.3- 41.2---
2024-05-20 01:00 amSSE 4.1-----30.24+0.00 45.9- 41.4---
2024-05-20 12:45 amSSE 2.9-----30.24- 46.4- 41.2---
2024-05-20 12:30 amSSE 2.9-----30.24- 48.2- 41.7---
2024-05-20 12:15 am S 2.9-----30.24- 49.1- 42.3---
2024-05-20 12:00 am S 1.9-----30.24+0.03 50.0- 42.4---
2024-05-19 11:45 pm SW 1.9-----30.24- 50.7- 41.4---
2024-05-19 11:30 pm SE 1.9-----30.24- 50.9- 40.8---
2024-05-19 11:15 pmSSW 1.0-----30.24- 51.3- 40.8---
2024-05-19 11:00 pm W 2.9-----30.24+0.03 51.6- 41.2---
2024-05-19 10:45 pmSSE 1.9-----30.24- 50.2- 41.9---
2024-05-19 10:30 pm S 1.9-----30.24- 48.9- 43.3---
2024-05-19 10:15 pmSSE 2.9-----30.24- 49.6- 43.9---
2024-05-19 10:00 pmSSE 1.9-----30.24+0.03 50.7- 44.6---
2024-05-19 09:45 pm S 1.9-----30.24- 50.7- 44.6---
2024-05-19 09:30 pmSSW 1.9-----30.24- 51.1- 45.0---
2024-05-19 09:15 pm S 2.9-----30.21- 51.4- 45.5---
2024-05-19 09:00 pmWSW 2.9-----30.21+0.00 51.8- 45.3---
2024-05-19 08:45 pm W 5.1-----30.21- 53.8- 45.1---
2024-05-19 08:30 pm W 5.1-----30.21- 54.7- 43.3---
2024-05-19 08:15 pm W 6.0-----30.21- 55.4- 41.9---
2024-05-19 08:00 pm W 5.1-----30.21+0.00 58.3- 42.8---
2024-05-19 07:45 pmWNW 2.9-----30.21- 59.7- 43.3---
2024-05-19 07:30 pmNNW 5.1-----30.21- 59.5- 43.5---
2024-05-19 07:15 pmNNW 5.1-----30.21- 59.7- 42.8---
2024-05-19 07:00 pmNNW 4.1-----30.21-0.03 60.3- 42.3---
2024-05-19 06:45 pm N 4.1-----30.21- 60.6- 41.5---
2024-05-19 06:30 pm N 5.1-----30.21- 60.8- 41.7---
2024-05-19 06:15 pm N 4.1-----30.21- 60.8- 41.7---
2024-05-19 06:00 pm N 4.1-----30.21-0.03 60.8- 41.7---